Location: *
(45.9500°N, 9.0833°E)
Time: 20:34:41
(UTC+00:00)

Tiros 1 - Pass Details

Date: 19 June 2021
Orbit: 630 x 664 km, 48.4° (Epoch: 05 August)

Event Time Altitude Azimuth Distance (km) Brightness Sun altitude
Rises 14:11:18 0° 288° (WNW) 2,949 11.0 49.8°
Reaches altitude 10° 14:13:37 10° 288° (WNW) 2,044 10.4 49.4°
Maximum altitude 14:18:21 86° 199° (SSW) 657 8.2 48.6°
Drops below altitude 10° 14:23:07 10° 112° (ESE) 2,060 9.5 47.8°
Sets 14:25:28 0° 112° (ESE) 2,975 10.2 47.4°
